Starlink 3176

operational
NORAD ID: 51106 Int'l Des: 2022-005 Owner: SPXS Country: US Constellation: starlink
LEOCIRCULAR

Über Starlink 3176

Beschreibung wird geladen...

Live-Position

3D-Globus wird geladen...

Nächste Überflüge

Höhenverlauf

Altitude vs Time

uPlot chart will show altitude changes over time

Zweizeiliger Elementsatz

1 51106U 22005C 25257.55934238 -.00001236 00000-0 -59564-4 0 9999
2 51106 53.2185 359.8005 0001218 92.3938 267.7194 15.08844094202288
Epoch: 14. Sept. 2025 • Age: 21 hours

Aktueller Status

Höhe 542.2 km
Geschwindigkeit 7.60 km/s
Subsatellitenpunkt 37.86°N, 14.12°W
Startdatum 19. Jan. 2022
Alter 3.6 years
Typ internet

Technische Details

Klassifizierung Payload
Masse 297.00 kg
Trockenmasse 275.00 kg
Gesamtmasse 297.00 kg
Länge 0.20 m
Durchmesser 2.80 m
Spannweite 9.00 m
Form Box + pan
Hersteller SPXS
Bus-Typ Starlink
Phasenstatus In Orbit
Besitzer/Staat SPXS/US

Große Konstellationen

Loading constellations...